Temperature
17 16 16 16 16 16 16 16 16 16 16 16 15 15 15 15 15 15 15 15 15 15 15 15 15 15 15 15 15 15 15 15 15 15 15 15 15 15 15 15 15 15 15
17 16 16 16 16 16 16 16 16 16 16 16 15 15 15 15 15 15 15 15 15 15 15 15 15 14 14 14 14 15 15 15 15 15 15 15 14 15 15 15 15 15 15
17 16 16 16 16 16 16 16 16 16 15 15 15 15 15 15 15 15 15 15 15 15 15 15 14 14 14 14 14 14 14 14 14 14 14 14 14 14 14 14 14 14 14
16 16 16 16 16 16 16 16 16 15 15 15 15 15 15 15 15 15 15 15 15 15 14 14 14 14 14 14 14 14 14 14 14 14 14 14 14 14 14 14 14 14 14
16 16 16 16 16 16 16 16 15 15 15 15 15 15 14 14 14 14 14 14 14 14 14 14 14 14 14 14 14 14 14 14 14 14 14 14 14 14 14 14 14 14 14
16 16 16 16 16 16 16 15 15 15 15 15 15 14 14 14 14 14 14 14 14 14 14 14 14 14 14 14 14 14 14 14 14 14 14 13 13 13 13 13 13 13 13
16 16 16 16 16 16 15 15 15 15 15 15 15 14 14 14 14 14 14 14 14 14 14 14 14 14 14 14 14 13 13 13 13 13 13 13 13 13 13 13 13 13 13
16 16 16 16 15 15 15 15 15 15 15 15 15 14 14 14 14 14 14 14 14 14 14 14 14 14 14 14 13 13 13 13 13 13 13 13 13 13 13 13 12 13 12
16 16 16 16 15 15 15 15 15 15 15 14 14 14 14 14 13 13 13 13 13 13 13 13 13 13 13 13 13 13 13 13 13 13 13 13 12 12 12 12 12 12 12
16 16 16 15 15 15 15 15 15 15 15 15 14 14 14 14 14 13 13 13 13 13 13 13 13 13 13 13 13 13 13 13 12 12 12 12 12 12 12 12 12 12 12
16 16 16 15 15 15 15 15 15 15 15 15 15 14 14 14 14 13 13 13 13 13 13 13 13 13 13 13 13 12 12 12 12 12 12 12 12 12 12 11 11 11 11
16 15 15 15 15 15 15 15 15 15 15 15 15 14 14 14 14 14 13 13 12 12 12 12 12 12 12 12 12 12 12 12 12 12 12 12 11 11 11 11 11 11 11
16 15 15 15 15 15 15 15 15 15 15 15 15 14 14 14 14 14 14 13 12 12 12 12 12 12 12 12 12 12 12 12 12 11 11 11 11 11 11 11 10 10 10
16 15 15 15 15 15 15 15 15 15 14 15 14 14 14 14 14 14 14 13 12 12 12 12 12 12 12 12 11 11 11 11 11 11 11 11 11 11 11 11 10 10 10
15 15 15 15 15 15 15 15 15 14 14 14 14 14 14 14 14 14 14 13 13 12 12 11 11 11 11 11 11 11 11 11 11 11 11 11 11 11 11 11 10 10 10
15 15 15 15 15 15 15 15 14 14 14 14 14 14 14 14 14 14 13 13 13 13 12 12 11 11 11 11 11 11 11 11 11 10 10 10 10 10 10 10 10 10 10
15 15 15 15 15 15 15 15 14 14 14 14 14 14 14 14 13 13 13 13 13 13 13 12 11 11 11 11 11 10 10 10 10 10 10 10 10 10 10 10 10 9 9
15 15 15 15 15 15 15 14 14 14 14 14 14 14 14 13 13 13 13 13 13 12 12 12 11 11 11 10 10 10 10 10 10 10 10 10 10 10 9 9 9 9 9
15 15 15 15 15 14 14 14 14 14 14 14 14 14 13 13 13 13 13 13 12 12 12 12 11 11 11 10 10 10 10 10 10 10 9 9 9 9 9 9 9 9 9
15 15 15 15 15 14 14 14 14 14 14 14 13 13 13 13 13 13 12 12 12 12 12 12 11 11 11 10 10 10 10 10 10 9 9 9 9 9 9 9 8 8 8
15 15 14 14 14 14 14 14 14 14 14 13 13 13 13 13 13 12 12 12 12 12 12 11 11 11 11 10 10 10 10 10 9 9 9 9 9 9 9 8 8 8 8
14 14 14 14 14 14 14 14 14 13 13 13 13 13 13 12 12 12 12 12 12 12 12 11 11 11 11 11 10 10 10 10 9 9 9 9 9 8 8 8 8 8 8
14 14 14 14 14 14 14 13 13 13 13 13 13 13 12 12 12 12 12 12 12 11 11 11 11 11 11 11 10 10 10 10 9 9 9 9 8 8 8 8 8 8 7
14 14 14 14 14 14 13 13 13 13 13 13 13 12 12 12 12 12 12 12 11 11 11 11 11 11 10 10 10 10 9 9 9 9 9 8 8 8 8 8 8 7 7
14 13 13 13 13 13 13 13 13 13 13 12 12 12 12 12 12 12 11 11 11 11 11 10 10 10 10 10 9 9 9 9 9 9 8 8 8 8 8 8 7 7 7
13 13 13 13 13 13 13 13 13 13 12 12 12 12 12 12 12 11 11 11 11 11 11 10 10 10 10 10 9 9 9 9 9 8 8 8 8 7 7 7 7 7 7
Wind_Speed
3 3 2 2 3 4 4 4 5 5 5 7 8 8 7 6 6 7 7 9 9 9 9 9 9 9 9 9 9 9 9 9 8 8 8 8 8 9 9 9 9 9 9
4 4 3 2 3 5 6 5 5 5 5 6 6 7 6 6 6 7 7 8 9 9 9 9 9 10 9 9 9 9 9 9 9 9 9 9 9 10 10 10 11 10 10
6 5 3 3 4 6 7 6 6 6 5 5 5 5 5 5 6 6 6 7 8 9 9 9 9 9 9 9 9 9 9 9 9 9 9 9 9 9 10 10 10 10 11
7 6 4 3 5 6 6 4 4 4 4 4 3 3 4 4 5 5 6 6 7 7 8 9 9 9 9 9 9 9 9 9 8 8 8 9 9 10 10 11 11 11 11
8 7 4 4 6 5 4 4 3 4 4 3 3 3 3 3 3 5 5 6 6 7 7 8 8 8 8 8 8 9 8 8 8 8 8 9 9 9 10 11 11 11 11
7 7 5 5 6 4 4 4 4 4 3 3 4 4 3 3 4 4 4 5 5 6 7 7 7 7 8 8 8 8 8 8 7 7 8 8 9 9 10 10 10 11 12
6 6 4 4 4 4 4 4 4 4 3 3 4 3 4 4 4 3 4 4 5 6 7 7 7 7 7 7 7 7 7 7 7 8 8 9 9 9 10 10 11 11 11
6 6 5 4 4 4 4 4 4 3 2 2 3 3 2 4 4 4 3 3 3 5 5 6 6 7 6 6 7 7 8 7 7 7 8 9 9 9 10 10 11 11 11
5 5 6 4 4 4 4 3 4 4 3 1 1 3 3 2 1 3 3 3 3 3 3 5 5 6 6 6 6 7 7 7 7 8 8 9 9 9 9 10 10 10 11
4 6 6 5 4 3 4 4 3 3 4 2 1 1 2 4 3 0 3 3 2 2 2 3 4 4 5 6 6 8 8 7 7 7 8 8 9 9 9 9 10 10 10
3 5 5 5 4 3 3 3 3 3 3 3 2 2 2 1 2 3 1 1 2 2 1 2 3 3 4 5 5 6 8 8 8 7 7 7 8 8 8 9 10 10 9
1 3 4 4 4 3 4 3 3 3 2 2 2 2 3 3 3 3 2 1 0 1 2 1 2 2 3 4 4 6 7 8 8 8 8 8 8 8 8 9 9 10 10
2 3 3 4 3 3 3 3 3 3 3 3 2 2 2 2 3 3 4 2 1 0 1 2 1 2 3 4 4 5 6 7 8 8 8 8 8 8 8 9 9 9 9
4 4 4 4 4 4 4 3 3 3 3 3 2 2 2 1 2 3 4 4 2 1 1 1 1 1 3 4 4 5 6 7 7 7 8 8 8 8 9 8 8 8 8
4 4 4 4 3 3 4 4 3 3 3 2 2 2 2 1 2 2 3 4 4 2 1 1 0 0 2 4 4 5 6 6 7 7 7 8 8 8 8 8 8 8 8
4 4 4 4 3 3 4 4 3 2 3 2 2 3 2 1 1 2 3 2 2 3 2 1 1 1 3 3 4 5 5 6 6 6 6 6 7 7 7 7 7 7 7
5 5 5 4 4 3 3 4 4 4 4 2 2 3 2 2 2 2 2 2 2 3 3 1 0 1 2 3 4 4 5 5 5 5 5 5 5 5 6 6 7 7 7
5 5 4 4 4 4 4 4 5 4 4 3 3 3 2 2 2 2 2 2 2 2 4 3 1 1 1 2 3 3 3 3 4 3 3 3 4 4 4 5 5 5 5
5 5 5 5 4 4 4 4 4 4 4 3 3 3 3 4 3 2 2 3 2 3 3 4 2 1 1 1 2 1 2 2 2 2 3 2 2 3 3 3 3 4 4
5 5 5 5 5 5 4 3 4 4 3 3 2 3 3 4 4 4 3 3 4 4 4 4 3 1 1 1 2 2 1 1 1 1 2 2 2 2 2 2 2 3 3
4 4 5 4 4 4 4 4 4 4 4 3 2 2 3 4 5 5 4 4 5 4 4 4 3 2 1 2 2 1 1 0 1 1 1 1 1 1 0 1 2 2 2
2 3 4 4 4 4 5 6 5 4 4 4 2 1 2 2 4 5 6 7 7 6 5 4 3 3 3 2 2 2 2 1 1 1 1 1 0 1 1 2 2 2 2
2 2 3 4 4 5 6 7 8 5 4 4 3 3 2 2 3 3 4 5 5 6 8 7 5 4 4 4 4 3 2 3 2 1 2 0 1 1 3 3 3 3 2
2 2 2 3 4 4 6 7 8 5 4 3 3 3 4 3 3 4 4 4 2 2 5 5 5 5 5 5 6 5 4 3 1 1 2 1 1 1 2 2 3 4 4
2 2 2 3 4 4 6 7 7 4 3 2 2 3 4 4 5 7 6 4 3 1 2 5 5 5 6 7 7 4 3 3 1 1 0 1 1 1 2 2 3 4 5
2 2 2 2 4 3 5 7 7 4 3 2 2 2 4 5 6 7 6 5 4 2 2 3 3 2 3 5 7 6 5 3 2 2 2 2 1 1 1 2 3 3 3
Wind_Direction
147 146 134 116 107 103 103 98 91 84 78 84 92 92 91 86 77 67 64 70 79 86 87 86 84 82 82 79 77 74 72 74 73 71 71 71 68 66 65 64 58 51 47
140 128 117 105 106 114 116 107 102 92 85 84 81 86 91 91 83 73 65 64 71 76 83 83 82 84 84 83 79 74 72 72 72 71 74 74 71 69 66 64 61 56 52
130 126 119 113 116 117 109 98 91 88 87 81 74 78 86 86 87 82 73 68 67 68 75 78 79 79 80 81 79 74 72 73 73 73 72 72 71 69 67 64 61 57 54
128 121 119 120 123 117 109 100 95 87 80 79 72 62 68 77 84 82 80 78 72 63 63 70 73 74 74 76 78 76 75 74 74 75 76 74 74 70 68 65 61 58 55
126 123 122 124 122 113 107 112 100 105 99 86 78 63 52 59 71 83 80 81 80 69 64 62 64 68 69 69 73 75 75 75 74 79 80 78 77 73 70 66 63 60 58
126 125 125 123 122 111 97 100 102 93 102 102 92 68 42 42 60 66 72 79 79 73 68 62 58 55 58 61 63 71 74 77 79 83 84 84 80 75 70 68 65 63 61
132 128 126 120 119 120 125 123 115 99 92 102 87 54 31 38 49 45 57 68 69 71 70 66 62 58 49 47 50 62 69 75 77 80 84 83 79 76 73 70 67 64 62
143 138 131 135 129 118 114 121 122 114 121 122 120 103 40 15 16 27 38 67 64 72 72 71 69 64 54 49 49 56 57 65 72 76 82 85 81 77 75 70 67 64 62
142 138 136 134 136 137 144 148 145 143 155 184 153 138 137 186 340 1 21 41 47 54 67 74 73 69 62 55 52 54 61 62 68 74 77 84 84 79 77 70 67 66 66
137 146 146 145 143 144 150 164 159 155 148 173 227 161 162 156 151 70 358 9 32 47 53 79 73 73 70 65 60 61 63 61 65 69 69 75 80 82 79 74 71 71 70
143 150 150 148 151 163 170 167 152 151 155 168 175 158 117 110 133 149 176 346 16 14 34 76 84 80 82 82 76 72 69 67 66 64 63 72 74 77 77 76 74 71 70
161 162 157 153 161 168 177 175 163 159 156 153 158 154 155 162 170 158 168 176 134 346 19 43 78 89 94 92 85 83 80 74 71 68 66 67 71 75 73 75 74 70 67
187 193 166 166 172 179 184 172 157 152 150 145 152 158 166 180 166 153 149 161 155 312 23 17 21 97 107 101 92 96 88 81 76 71 69 71 74 78 76 73 72 70 68
191 184 174 180 182 181 178 162 152 159 151 148 149 145 146 168 156 159 158 153 144 27 21 334 7 65 120 119 110 106 96 91 83 76 72 72 74 78 77 74 71 68 67
180 173 170 176 179 176 168 158 151 158 144 147 148 139 130 152 145 157 155 160 155 162 232 252 275 309 137 126 124 117 109 104 96 85 79 78 78 80 79 79 76 71 66
177 169 174 176 169 167 161 156 152 155 141 149 142 132 125 133 145 137 151 151 142 151 168 210 217 196 153 128 125 121 113 106 103 95 86 83 83 81 83 84 83 78 72
177 174 175 170 167 167 159 158 166 160 153 147 138 141 146 144 136 136 136 125 120 125 136 161 35 113 124 126 117 119 123 116 117 114 106 102 98 94 90 90 89 84 78
180 180 176 172 174 175 168 165 177 171 164 162 164 145 158 156 138 139 139 133 130 127 134 139 109 97 117 149 143 130 128 132 133 130 129 121 120 116 112 107 100 94 85
175 177 178 181 176 173 170 172 173 170 171 171 168 163 170 154 153 152 147 140 135 124 111 129 130 92 80 109 96 95 100 82 120 126 126 113 113 127 130 129 122 113 99
176 181 182 181 175 170 170 175 166 159 158 159 165 170 170 165 170 167 156 150 136 121 114 121 124 115 101 89 104 108 69 33 33 88 112 111 106 123 139 154 151 139 126
184 179 167 171 170 169 177 172 166 157 154 151 152 167 168 165 163 162 157 156 144 135 129 129 137 117 116 128 167 167 144 87 3 14 76 32 76 72 74 209 197 188 172
161 160 167 173 181 191 179 171 161 151 151 152 160 170 158 151 145 147 145 151 151 151 156 152 160 168 190 182 159 151 138 125 273 295 126 334 79 262 260 232 211 190 187
128 148 173 170 177 186 172 163 157 152 155 167 173 170 168 152 130 135 130 132 145 156 159 163 165 190 189 191 162 150 155 157 195 237 126 265 333 277 273 262 234 224 228
142 155 169 170 171 182 167 159 153 151 153 168 174 170 167 169 157 146 134 126 134 161 177 169 178 189 183 176 174 175 172 150 105 44 129 186 274 272 294 288 246 232 235
159 177 182 175 176 184 167 159 150 152 159 181 185 175 171 173 160 145 141 143 139 154 140 159 162 163 163 162 153 129 124 119 180 269 142 162 250 285 308 294 280 253 247
180 184 194 185 182 184 173 164 157 158 162 175 169 181 172 165 157 150 153 155 161 187 144 121 113 120 143 153 159 163 168 160 165 232 220 163 187 115 313 304 300 284 268
Height
1549 1549 1550 1550 1551 1551 1551 1551 1552 1551 1551 1551 1551 1551 1551 1550 1550 1549 1548 1548 1547 1546 1545 1544 1544 1543 1543 1542 1541 1541 1540 1540 1540 1539 1539 1538 1538 1538 1537 1537 1536 1536 1535
1549 1550 1550 1551 1552 1552 1552 1552 1553 1553 1552 1552 1552 1552 1552 1551 1551 1550 1550 1549 1548 1547 1546 1546 1545 1545 1544 1543 1543 1542 1541 1541 1540 1540 1540 1539 1539 1538 1538 1537 1537 1536 1535
1549 1550 1551 1551 1552 1552 1553 1553 1553 1553 1553 1553 1553 1553 1553 1552 1552 1552 1551 1550 1549 1549 1548 1547 1547 1546 1545 1544 1544 1543 1542 1542 1541 1541 1541 1540 1540 1539 1539 1538 1537 1537 1536
1550 1550 1551 1551 1552 1553 1553 1553 1553 1554 1554 1554 1554 1554 1554 1553 1553 1553 1552 1552 1551 1550 1549 1549 1548 1547 1546 1546 1545 1544 1544 1543 1542 1542 1541 1541 1541 1540 1540 1539 1538 1537 1536
1550 1550 1551 1551 1552 1553 1553 1554 1554 1554 1554 1554 1555 1555 1555 1555 1554 1554 1553 1553 1552 1552 1551 1550 1549 1549 1548 1547 1546 1545 1544 1544 1543 1543 1542 1542 1541 1541 1540 1540 1539 1538 1537
1549 1550 1551 1551 1552 1553 1553 1554 1554 1554 1555 1555 1555 1555 1556 1556 1555 1555 1555 1554 1554 1553 1552 1551 1551 1550 1549 1548 1547 1547 1545 1545 1544 1543 1543 1543 1542 1542 1541 1540 1540 1539 1538
1549 1550 1550 1551 1552 1552 1553 1554 1554 1554 1555 1555 1555 1556 1556 1556 1556 1556 1556 1555 1554 1554 1553 1552 1552 1551 1550 1549 1548 1547 1546 1545 1545 1544 1544 1543 1543 1542 1542 1541 1540 1540 1539
1548 1549 1550 1550 1551 1552 1553 1553 1554 1554 1555 1555 1555 1555 1556 1558 1557 1557 1557 1556 1555 1555 1554 1553 1553 1552 1551 1550 1549 1548 1547 1546 1546 1545 1545 1544 1544 1543 1543 1542 1541 1541 1540
1548 1549 1549 1550 1551 1552 1552 1553 1554 1554 1554 1555 1555 1556 1556 1556 1557 1557 1557 1556 1556 1555 1555 1554 1553 1552 1551 1550 1549 1548 1548 1547 1547 1546 1546 1545 1544 1544 1543 1543 1542 1542 1541
1548 1548 1549 1550 1550 1551 1552 1552 1553 1554 1554 1554 1555 1555 1556 1556 1556 1556 1557 1557 1556 1556 1555 1554 1554 1553 1552 1551 1550 1549 1548 1548 1547 1547 1546 1546 1545 1544 1544 1543 1543 1542 1541
1547 1548 1548 1549 1550 1550 1551 1552 1552 1553 1553 1553 1554 1554 1554 1555 1555 1555 1555 1556 1556 1555 1555 1554 1554 1553 1552 1551 1550 1549 1549 1548 1547 1547 1547 1546 1546 1545 1544 1544 1543 1543 1542
1546 1547 1547 1548 1549 1549 1550 1551 1552 1552 1552 1552 1553 1553 1553 1553 1553 1553 1553 1554 1554 1555 1554 1554 1553 1553 1552 1551 1551 1550 1549 1548 1548 1547 1547 1546 1546 1545 1545 1544 1544 1543 1543
1544 1545 1546 1547 1548 1549 1549 1550 1551 1551 1551 1551 1552 1552 1552 1552 1552 1552 1552 1552 1553 1553 1553 1553 1553 1552 1552 1551 1551 1550 1549 1549 1548 1548 1547 1546 1546 1545 1545 1544 1544 1544 1543
1543 1544 1545 1546 1547 1548 1548 1549 1549 1550 1550 1550 1550 1551 1551 1551 1551 1551 1551 1551 1551 1552 1552 1552 1552 1551 1551 1551 1551 1550 1550 1549 1549 1548 1547 1547 1546 1545 1545 1544 1544 1544 1543
1542 1543 1544 1545 1546 1546 1547 1548 1548 1548 1549 1549 1549 1549 1549 1549 1549 1549 1550 1550 1550 1549 1550 1550 1551 1551 1551 1551 1551 1550 1550 1549 1549 1548 1548 1547 1546 1546 1545 1545 1544 1544 1543
1540 1541 1542 1543 1544 1545 1545 1546 1546 1547 1547 1548 1548 1548 1548 1548 1548 1548 1548 1548 1549 1549 1548 1549 1549 1550 1550 1550 1550 1550 1550 1549 1549 1549 1548 1547 1546 1546 1545 1545 1544 1544 1543
1538 1539 1540 1541 1541 1542 1543 1544 1545 1545 1546 1546 1546 1546 1546 1547 1547 1547 1547 1547 1547 1548 1547 1548 1548 1548 1549 1549 1549 1549 1549 1549 1549 1548 1548 1547 1547 1546 1545 1545 1544 1544 1543
1536 1537 1538 1539 1539 1540 1541 1542 1543 1543 1544 1544 1544 1545 1545 1545 1545 1546 1546 1546 1546 1546 1546 1546 1547 1547 1548 1549 1549 1549 1549 1549 1548 1548 1548 1547 1547 1546 1545 1545 1544 1544 1543
1534 1535 1536 1536 1537 1538 1539 1540 1540 1541 1541 1542 1543 1543 1543 1544 1544 1544 1544 1545 1545 1545 1545 1545 1546 1547 1547 1548 1548 1548 1548 1548 1548 1548 1547 1547 1546 1546 1545 1545 1544 1543 1543
1532 1533 1534 1534 1535 1536 1537 1537 1538 1538 1539 1540 1541 1541 1542 1542 1542 1542 1543 1543 1543 1544 1544 1545 1545 1545 1546 1546 1547 1547 1547 1547 1547 1547 1546 1546 1545 1545 1544 1544 1543 1543 1542
1529 1530 1531 1532 1533 1534 1535 1535 1536 1536 1537 1538 1539 1539 1540 1540 1541 1541 1541 1541 1542 1542 1543 1543 1543 1544 1544 1544 1545 1546 1546 1546 1546 1546 1545 1545 1544 1544 1543 1543 1542 1542 1541
1527 1528 1529 1530 1531 1531 1532 1533 1534 1534 1535 1536 1536 1537 1538 1538 1539 1539 1540 1540 1541 1541 1541 1542 1542 1542 1542 1543 1544 1544 1544 1544 1544 1545 1544 1544 1543 1542 1542 1541 1541 1540 1540
1525 1526 1526 1527 1528 1529 1530 1531 1531 1532 1533 1533 1534 1535 1535 1536 1537 1537 1538 1538 1539 1540 1540 1541 1540 1541 1541 1542 1542 1542 1542 1543 1543 1543 1543 1542 1541 1541 1541 1540 1539 1539 1538
1523 1523 1524 1525 1526 1526 1527 1528 1529 1530 1530 1531 1532 1532 1533 1533 1534 1535 1535 1536 1537 1537 1538 1539 1539 1539 1540 1541 1541 1541 1541 1541 1541 1541 1541 1540 1539 1539 1539 1538 1537 1537 1536
1521 1521 1522 1523 1523 1524 1525 1526 1527 1528 1528 1529 1529 1530 1531 1531 1532 1533 1533 1533 1534 1535 1536 1537 1537 1538 1538 1539 1539 1539 1539 1538 1538 1538 1538 1538 1537 1536 1536 1536 1535 1535 1534
1518 1519 1520 1520 1521 1521 1522 1523 1525 1525 1525 1526 1527 1528 1528 1529 1529 1530 1531 1531 1532 1533 1534 1534 1535 1535 1536 1536 1536 1536 1536 1536 1536 1535 1535 1535 1535 1534 1534 1533 1533 1532 1531